Regional Weather Roundup
Issued by NWS

Home | Current Version | Previous Version | Graphics & Text | Print | Product List | Glossary On
Versions: 1 2 3 4 5 6 7 8 9 10 11 12 13 14 15 16 17 18 19 20 21 22 23 24 25 26 27 28 29 30 31 32 33 34 35 36 37 38 39 40 41 42 43 44 45 46 47 48 49 50
861
ASUS43 KTOP 200359
RWRKS

WEATHER ROUNDUP FOR KANSAS
NATIONAL WEATHER SERVICE GOODLAND KS
1000 PM CST SUN NOV 19 2017

NOTE:  "FAIR" INDICATES FEW OR NO CLOUDS BELOW 12,000 FEET WITH NO
SIGNIFICANT WEATHER AND/OR OBSTRUCTIONS TO VISIBILITY.

KSZ001>006-013>018-027>032-041>047-200500-
NORTHWEST KANSAS

CITY           SKY/WX    TMP DP  RH WIND       PRES   REMARKS
GOODLAND       CLOUDY    41  16  36 SW10      29.93S
HAYS           CLOUDY    38  22  52 SW8       29.97F
HILL CITY      CLOUDY    40  26  57 CALM      29.94F
RUSSELL        CLOUDY    41  23  48 S13       29.96S
$$

KSZ061>065-074>080-084>089-200500-
SOUTHWEST KANSAS

CITY           SKY/WX    TMP DP  RH WIND       PRES   REMARKS
DODGE CITY     CLEAR     41  18  39 S10       30.01S
GARDEN CITY    CLOUDY    41  19  41 S10       29.98F
GREAT BEND     CLOUDY    43  19  38 S13       30.00S
LIBERAL        CLEAR     42  18  37 S16       30.02F
$$

KSZ066>073-081>083-090>101-200500-
SOUTHEAST KANSAS

CITY           SKY/WX    TMP DP  RH WIND       PRES   REMARKS
CHANUTE        CLOUDY    42  30  62 S10       30.12F
COFFEYVILLE    CLOUDY    42  30  62 S8        30.15S
HUTCHINSON     CLEAR     46  24  42 S12       30.03F
MEDICINE LODGE   N/A     42  23  46 S9        30.06S
NEWTON         CLEAR     48  23  37 S20       30.05F
PARSONS        CLOUDY    44  30  57 S9        30.15S
WICHITA INTL   CLEAR     42  26  53 S12       30.06F
WICHITA JABRA  CLEAR     47  25  42 S16       30.06F
WICHITA MCCONL CLEAR     45  24  43 SW14      30.07S
WINFIELD       CLEAR     46  26  45 S12       30.11F
$$

KSZ007>012-019>026-033>040-048>060-102>105-200500-
NORTHEAST KANSAS

CITY           SKY/WX    TMP DP  RH WIND       PRES   REMARKS
CONCORDIA      CLOUDY    45  22  40 S18       29.95F
EMPORIA        CLOUDY    42  25  50 S17       30.05F
LAWRENCE       CLEAR     43  30  60 S8        30.05F
MANHATTAN      CLOUDY    46  24  42 SW14      30.00F
OLATHE IND     CLEAR     41  31  67 S10       30.06F
OLATHE EXE     CLEAR     42  30  62 S13       30.06F
SALINA         CLOUDY    49  24  37 S17       30.00F
TOPEKA BILLARD CLOUDY    47  26  44 S12       30.03F
TOPEKA FORBES  CLEAR     46  27  47 S13       30.03F
$$




USA.gov is the U.S. government's official web portal to all federal, state and local government web resources and services.